This is the latest recevied weather packets stored in our database for station/object OE3MHU-13. If no packets are shown the sender has not sent any weather packets the latest 10 day(s).
| Time | Temp. | Humidity | Pressure | Rain* | Wind** | Luminosity | Snow |
|---|---|---|---|---|---|---|---|
| 1787389927 | 20.56° C | 65% | 1017.7 hPa | 0 mm | - | - | - |
| 1787389620 | 20.56° C | 65% | 1017.8 hPa | 0 mm | - | - | - |
| 1787389316 | 20.56° C | 65% | 1017.9 hPa | 0 mm | - | - | - |
| 1787389009 | 20.56° C | 64% | 1018 hPa | 0 mm | - | - | - |
| 1787388704 | 21.11° C | 65% | 1018 hPa | 0 mm | - | - | - |
| 1787388515 | 21.11° C | 65% | 1018 hPa | 0 mm | - | - | - |
| 1787388510 | 21.11° C | 65% | 1018 hPa | 0 mm | - | - | - |
| 1787387785 | 21.11° C | 65% | 1017.9 hPa | 0 mm | - | - | - |
| 1787387479 | 21.67° C | 65% | 1017.8 hPa | 0 mm | - | - | - |
| 1787387173 | 21.67° C | 65% | 1017.7 hPa | 0 mm | - | - | - |
| 1787386867 | 21.11° C | 66% | 1017.6 hPa | 0 mm | - | - | - |
| 1787386561 | 21.11° C | 66% | 1017.7 hPa | 0 mm | - | - | - |
| 1787386255 | 21.11° C | 65% | 1017.7 hPa | 0 mm | - | - | - |
| 1787385950 | 21.11° C | 65% | 1017.7 hPa | 0 mm | - | - | - |
| 1787385644 | 21.67° C | 65% | 1017.7 hPa | 0 mm | - | - | - |
| 1787385341 | 21.11° C | 66% | 1017.6 hPa | 0 mm | - | - | - |
| 1787385032 | 21.11° C | 66% | 1017.5 hPa | 0 mm | - | - | - |
| 1787384725 | 20.56° C | 66% | 1017.4 hPa | 0 mm | - | - | - |
| 1787384419 | 20.56° C | 67% | 1017.5 hPa | 0 mm | - | - | - |
| 1787384113 | 20° C | 67% | 1017.6 hPa | 0 mm | - | - | - |
| 1787383807 | 20° C | 68% | 1017.6 hPa | 0 mm | - | - | - |
| 1787383504 | 20° C | 67% | 1017.4 hPa | 0 mm | - | - | - |
| 1787383198 | 20° C | 67% | 1017.4 hPa | 0 mm | - | - | - |
| 1787382889 | 20° C | 68% | 1017.3 hPa | 0 mm | - | - | - |
| 1787382583 | 19.44° C | 68% | 1017 hPa | 0 mm | - | - | - |
* Rain latest hour (hover to see other rain measurements)
** Current wind speed in m/s (hover to see current wind gust speed)